Weather History for Kilimanjaro, Tanzania

Change the Weather History Date:

Wednesday, March 26, 2014

  Actual Average Record
Temperature  
Mean Temperature 76 °F -  
Max Temperature 85 °F - - ()
Min Temperature 66 °F - - ()
Cooling Degree Days 10    
Growing Degree Days 26 (Base 50)    
Moisture  
Dew Point 68 °F    
Average Humidity 82    
Maximum Humidity 100    
Minimum Humidity 56    
Precipitation  
Precipitation 0.12 in - - ()
Sea Level Pressure  
Sea Level Pressure 29.91 in    
Wind  
Wind Speed 4 mph ()    
Max Wind Speed 12 mph    
Max Gust Speed -    
Visibility 9.4 miles    
Events Rain , Thunderstorm    
T = Trace of Precipitation, MM = Missing Value Source: Averaged Metar Reports

Daily Weather History Graph

Daily Weather History Graph

Search for Another Location

Airport:

Trip Planner

Search our weather history database for the weather conditions in past years. The results will help you decide how hot, cold, wet, or windy it might be!

Date:

Astronomy

Mar. 26, 2014 Rise Set
Actual Time 6:34 AM EAT 6:40 PM EAT
Civil Twilight 6:13 AM EAT 7:00 PM EAT
Nautical Twilight 5:49 AM EAT 7:24 PM EAT
Astronomical Twilight 5:25 AM EAT 7:48 PM EAT
Moon 2:21 AM EAT (3/26) 2:55 PM EAT (3/26)
Length of Visible Light 12h 46m
Length of Day
12h 05m
Waning Crescent, 25% of the Moon is Illuminated
Mar 26
Waning Crescent
Mar 30
New
Apr 7
First Quarter
Apr 15
Full
Apr 22
Last Quarter

Hourly Weather History & Observations

Time (EAT) Temp. Heat Index Dew Point Humidity Pressure Visibility Wind Dir Wind Speed Gust Speed Precip Events Conditions
12:00 AM 73 °F - 67 °F 76%  in 19 mi ESE 11.5 mph - -   Mostly Cloudy
12:00 AM 73.4 °F - 66.2 °F 78% 29.95 in 6.2 mi ESE 11.5 mph - N/A   Mostly Cloudy
1:00 AM 71.6 °F - 66.2 °F 83% 29.92 in 6.2 mi Calm Calm - N/A   Mostly Cloudy
2:00 AM 69.8 °F - 66.2 °F 88% 29.92 in 6.2 mi Calm Calm - N/A   Mostly Cloudy
3:00 AM 68 °F - 65 °F 87%  in 19 mi Calm Calm - - Rain , Thunderstorm Thunderstorms and Rain
3:00 AM 68.0 °F - 64.4 °F 88% 29.92 in 6.2 mi Calm Calm - N/A Rain , Thunderstorm Light Thunderstorms and Rain
4:00 AM 68.0 °F - 64.4 °F 88% 29.92 in 6.2 mi Calm Calm - N/A   Mostly Cloudy
5:00 AM 68.0 °F - 66.2 °F 94% 29.86 in 6.2 mi Calm Calm - N/A   Mostly Cloudy
6:00 AM 69 °F - 67 °F 93%  in 19 mi Calm Calm - - Rain Light Rain
6:00 AM 68.0 °F - 68.0 °F 100% 29.95 in 6.2 mi Calm Calm - N/A Rain Light Rain
7:00 AM 68.0 °F - 64.4 °F 88% 29.98 in 6.2 mi North 9.2 mph - N/A Rain Light Rain
8:00 AM 68.0 °F - 64.4 °F 88% 29.98 in 6.2 mi NNE 6.9 mph - N/A   Mostly Cloudy
9:00 AM 70 °F - 68 °F 93%  in 19 mi East 11.5 mph - -   Mostly Cloudy
9:00 AM 69.8 °F - 68.0 °F 94% 30.01 in 6.2 mi East 11.5 mph - N/A   Mostly Cloudy
10:00 AM 73.4 °F - 68.0 °F 83% 30.01 in 6.2 mi East 9.2 mph - N/A   Mostly Cloudy
1:00 PM 82.4 °F 86.3 °F 69.8 °F 66% 29.89 in 6.2 mi Calm Calm - N/A   Scattered Clouds
2:00 PM 82.4 °F 86.3 °F 69.8 °F 66% 29.86 in - East 4.6 mph - N/A   Scattered Clouds
3:00 PM 84 °F - 71 °F 56%  in 19 mi ESE 5.8 mph - -   Partly Cloudy
3:00 PM 84.2 °F 88.4 °F 69.8 °F 62% 29.83 in 6.2 mi ESE 5.8 mph - N/A   Scattered Clouds
4:00 PM 82.4 °F 86.3 °F 69.8 °F 66% 29.83 in 6.2 mi Calm Calm - N/A   Scattered Clouds
5:00 PM 77.0 °F - 71.6 °F 83% 29.83 in 6.2 mi Calm Calm - N/A   Mostly Cloudy
6:00 PM 79 °F - 69 °F 65%  in 19 mi NNW 5.8 mph - -   Scattered Clouds
6:00 PM 78.8 °F - 69.8 °F 74% 29.83 in 6.2 mi NNW 5.8 mph - N/A   Mostly Cloudy
7:00 PM 77.0 °F - 69.8 °F 78% 29.86 in 6.2 mi Calm Calm - N/A   Scattered Clouds
8:00 PM 75.2 °F - 73.4 °F 94% 29.89 in 6.2 mi Calm Calm - N/A   Scattered Clouds
9:00 PM 75 °F - 71 °F 82%  in 19 mi Calm Calm - -   Partly Cloudy
9:00 PM 75.2 °F - 69.8 °F 83% 29.92 in 6.2 mi Calm Calm - N/A   Scattered Clouds
10:00 PM 73.4 °F - 69.8 °F 88% 29.92 in 6.2 mi ESE 5.8 mph - N/A   Scattered Clouds
11:00 PM 73.4 °F - 68.0 °F 83% 29.95 in 6.2 mi Calm Calm - N/A   Scattered Clouds